Weather History for Findlay, OH

Change the Weather History Date:

Monday, January 21, 2013

  Actual Average Record
Temperature  
Mean Temperature 14 °F -  
Max Temperature 19 °F 31 °F 55 °F (1974)
Min Temperature 8 °F 19 °F -15 °F (1985)
Degree Days  
Heating Degree Days 51    
Moisture  
Dew Point 6 °F    
Average Humidity 63    
Maximum Humidity 79    
Minimum Humidity 47    
Precipitation  
Precipitation 0.00 in - - ()
Sea Level Pressure  
Sea Level Pressure 30.07 in    
Wind  
Wind Speed 15 mph (West)    
Max Wind Speed 26 mph    
Max Gust Speed 37 mph    
Visibility 7 miles    
Events Snow    
Averages and records for this station are not official NWS values.
T = Trace of Precipitation, MM = Missing Value Source: NWS Daily Summary

Daily Weather History Graph

Daily Weather History Graph

Search for Another Location

Airport:

Trip Planner

Search our weather history database for the weather conditions in past years. The results will help you decide how hot, cold, wet, or windy it might be!

Date:

Astronomy

Jan. 21, 2013 Rise Set
Actual Time 7:54 AM EST 5:38 PM EST
Civil Twilight 7:24 AM EST 6:08 PM EST
Nautical Twilight 6:50 AM EST 6:41 PM EST
Astronomical Twilight 6:17 AM EST 7:14 PM EST
Moon 1:17 PM EST (1/21) 3:21 AM EST (1/21)
Length of Visible Light 10h 44m
Length of Day
9h 44m
Waxing Gibbous, 75% of the Moon is Illuminated
Jan 21
Waxing Gibbous
Jan 26
Full
Feb 3
Last Quarter
Feb 10
New
Feb 17
First Quarter

Hourly Weather History & Observations

Time (EST) Temp. Windchill Dew Point Humidity Pressure Visibility Wind Dir Wind Speed Gust Speed Precip Events Conditions
12:53 AM 19.0 °F 8.2 °F 9.0 °F 65% 30.16 in 10.0 mi WNW 9.2 mph - N/A   Overcast
1:53 AM 19.0 °F 12.3 °F 9.0 °F 65% 30.14 in 10.0 mi West 4.6 mph - N/A   Overcast
2:53 AM 19.0 °F 10.0 °F 9.0 °F 65% 30.14 in 10.0 mi West 6.9 mph - N/A   Overcast
3:53 AM 19.0 °F 11.1 °F 10.0 °F 68% 30.12 in 10.0 mi WSW 5.8 mph - N/A   Overcast
4:53 AM 19.0 °F 10.0 °F 9.0 °F 65% 30.09 in 10.0 mi West 6.9 mph - N/A   Overcast
5:53 AM 19.0 °F 9.0 °F 9.0 °F 65% 30.07 in 10.0 mi WSW 8.1 mph - N/A   Overcast
6:50 AM 19.4 °F 6.0 °F 10.4 °F 68% 30.03 in 10.0 mi WSW 13.8 mph - N/A   Overcast
6:53 AM 19.0 °F 4.0 °F 10.0 °F 68% 30.06 in 10.0 mi West 17.3 mph - N/A   Overcast
7:53 AM 19.0 °F 6.1 °F 7.0 °F 59% 30.07 in 10.0 mi West 12.7 mph - N/A   Overcast
8:53 AM 18.0 °F 1.3 °F 6.1 °F 60% 30.07 in 10.0 mi WSW 20.7 mph 25.3 mph N/A   Overcast
9:53 AM 19.0 °F 3.2 °F 6.1 °F 57% 30.06 in 10.0 mi West 19.6 mph 27.6 mph N/A   Overcast
10:41 AM 19.4 °F 4.1 °F 8.6 °F 63% 30.03 in 9.0 mi West 18.4 mph 23.0 mph 0.00 in   Overcast
10:53 AM 18.0 °F 1.3 °F 8.1 °F 65% 30.06 in 9.0 mi West 20.7 mph 27.6 mph 0.00 in   Overcast
11:03 AM 19.4 °F 4.1 °F 8.6 °F 63% 30.03 in 10.0 mi West 18.4 mph 25.3 mph N/A   Overcast
11:17 AM 17.6 °F -0.3 °F 8.6 °F 68% 30.03 in 4.0 mi West 24.2 mph 29.9 mph 0.00 in Snow Light Snow
11:27 AM 19.4 °F 2.1 °F 6.8 °F 58% 30.02 in 9.0 mi West 24.2 mph 29.9 mph 0.00 in   Overcast
11:38 AM 17.6 °F 0.9 °F 10.4 °F 73% 30.02 in 1.8 mi West 20.7 mph 32.2 mph 0.00 in Snow Light Snow
11:47 AM 17.6 °F 0.9 °F 8.6 °F 68% 30.02 in 3.0 mi West 20.7 mph 29.9 mph 0.00 in Snow Light Snow
11:53 AM 17.1 °F -1.4 °F 8.1 °F 68% 30.05 in 1.8 mi West 25.3 mph 36.8 mph 0.00 in Snow Light Snow
12:00 PM 17.6 °F -1.0 °F 6.8 °F 63% 30.01 in 1.8 mi West 26.5 mph 36.8 mph 0.00 in Snow Light Snow
12:02 PM 19.4 °F 2.8 °F 6.8 °F 58% 30.01 in 4.0 mi West 21.9 mph 32.2 mph 0.00 in Snow Light Snow
12:53 PM 18.0 °F 0.2 °F 3.9 °F 54% 30.04 in 5.0 mi West 24.2 mph 34.5 mph 0.00 in Snow Light Snow
1:53 PM 17.1 °F -1.0 °F 1.0 °F 50% 30.03 in 7.0 mi West 24.2 mph 31.1 mph 0.00 in Snow Light Snow
2:53 PM 17.1 °F -0.6 °F -0.0 °F 47% 30.04 in 10.0 mi West 23.0 mph 31.1 mph 0.00 in   Overcast
3:53 PM 16.0 °F -2.1 °F 5.0 °F 62% 30.06 in 6.0 mi West 23.0 mph 28.8 mph 0.00 in Snow Light Snow
4:49 PM 15.8 °F 0.3 °F 6.8 °F 68% 30.04 in 2.0 mi West 16.1 mph 26.5 mph 0.00 in Snow Light Snow
4:53 PM 15.1 °F -2.5 °F 7.0 °F 70% 30.08 in 1.5 mi West 20.7 mph 27.6 mph 0.00 in Snow Light Snow
4:58 PM 15.8 °F -1.9 °F 3.2 °F 58% 30.04 in 3.0 mi West 21.9 mph 27.6 mph 0.00 in Snow Light Snow
5:28 PM 14.0 °F -4.3 °F 3.2 °F 62% 30.05 in 9.0 mi West 21.9 mph 31.1 mph 0.00 in   Mostly Cloudy
5:39 PM 14.0 °F -3.9 °F 6.8 °F 73% 30.06 in 2.5 mi West 20.7 mph - 0.00 in Snow Light Snow
5:46 PM 14.0 °F -4.3 °F 6.8 °F 73% 30.06 in 1.8 mi West 21.9 mph 29.9 mph 0.00 in Snow Light Snow
5:49 PM 12.2 °F -5.3 °F 6.8 °F 79% 30.06 in 3.0 mi West 18.4 mph 29.9 mph 0.00 in Snow Light Snow
5:53 PM 12.9 °F -4.9 °F 3.9 °F 67% 30.09 in 3.0 mi West 19.6 mph - 0.00 in Snow Light Snow
6:53 PM 12.9 °F -3.4 °F 1.9 °F 62% 30.11 in 10.0 mi WNW 16.1 mph 25.3 mph 0.00 in   Mostly Cloudy
7:53 PM 10.9 °F -5.9 °F -0.9 °F 59% 30.13 in 10.0 mi West 16.1 mph 24.2 mph N/A   Clear
8:53 PM 10.0 °F -7.1 °F -2.0 °F 58% 30.15 in 10.0 mi West 16.1 mph 23.0 mph N/A   Clear
9:53 PM 9.0 °F -7.3 °F -0.9 °F 64% 30.16 in 10.0 mi West 13.8 mph - N/A   Clear
10:53 PM 9.0 °F -9.0 °F -2.9 °F 59% 30.17 in 10.0 mi West 17.3 mph 25.3 mph N/A   Clear
11:53 PM 8.1 °F -11.7 °F -4.0 °F 58% 30.18 in 10.0 mi West 20.7 mph 27.6 mph N/A   Partly Cloudy